| time (UTC) | temp F | wind direction | speed MPH | gust MPH | rain 1hr in | rain 24hr in | rain mn in | humidity % | barometer mb |
| 20260502231803 | 58 | 255 | 0.0 | 2.0 | 0.00 | 0.09 | 0.00 | 87 | 1013.5 |
| 20260502231117 | 58 | 259 | 1.0 | 2.0 | 0.00 | 0.09 | 0.00 | 87 | 1013.5 |
| 20260502230003 | 57 | 229 | 1.0 | 2.0 | 0.00 | 0.09 | 0.00 | 88 | 1013.4 |
| 20260502225403 | 57 | 217 | 1.0 | 4.0 | 0.00 | 0.09 | 0.00 | 87 | 1013.7 |
| 20260502224503 | 56 | 187 | 1.0 | 2.0 | 0.00 | 0.09 | 0.00 | 87 | 1013.6 |
| 20260502223603 | 56 | 201 | 1.0 | 3.0 | 0.00 | 0.09 | 0.00 | 87 | 1013.5 |
| 20260502222918 | 56 | 191 | 2.0 | 6.0 | 0.00 | 0.09 | 0.00 | 87 | 1013.3 |
| 20260502222018 | 56 | 9 | 1.0 | 4.0 | 0.00 | 0.09 | 0.00 | 86 | 1013.3 |
| 20260502220903 | 56 | 7 | 0.0 | 1.0 | 0.00 | 0.09 | 0.00 | 86 | 1012.8 |
| 20260502220216 | 56 | 7 | 0.0 | 1.0 | 0.00 | 0.09 | 0.00 | 86 | 1012.8 |
| 20260502215403 | 56 | 7 | 0.0 | 1.0 | 0.01 | 0.09 | 0.09 | 86 | 1012.8 |
| 20260502214503 | 57 | 347 | 1.0 | 2.0 | 0.09 | 0.09 | 0.09 | 85 | 1012.9 |
| 20260502213603 | 57 | 298 | 1.0 | 2.0 | 0.09 | 0.09 | 0.09 | 84 | 1013.1 |
| 20260502212703 | 58 | 283 | 0.0 | 1.0 | 0.09 | 0.09 | 0.09 | 83 | 1013.2 |
| 20260502211803 | 58 | 283 | 0.0 | 1.0 | 0.09 | 0.09 | 0.09 | 81 | 1013.4 |
| 20260502210903 | 59 | 283 | 0.0 | 1.0 | 0.09 | 0.09 | 0.09 | 79 | 1013.8 |
| 20260502210003 | 60 | 270 | 1.0 | 4.0 | 0.09 | 0.09 | 0.09 | 75 | 1013.8 |
| 20260502205615 | 61 | 234 | 1.0 | 4.0 | 0.09 | 0.09 | 0.09 | 73 | 1014.0 |
| 20260502204503 | 61 | 71 | 0.0 | 1.0 | 0.00 | 0.00 | 0.00 | 69 | 1014.2 |
| 20260502203603 | 62 | 40 | 0.0 | 1.0 | 0.00 | 0.00 | 0.00 | 68 | 1013.9 |
| 20260502202918 | 62 | 14 | 1.0 | 3.0 | 0.00 | 0.00 | 0.00 | 67 | 1013.9 |
| 20260502202017 | 62 | 1 | 2.0 | 3.0 | 0.00 | 0.00 | 0.00 | 67 | 1013.6 |
| 20260502200903 | 63 | 360 | 1.0 | 2.0 | 0.00 | 0.00 | 0.00 | 67 | 1014.0 |
| 20260502200003 | 63 | 17 | 1.0 | 2.0 | 0.00 | 0.00 | 0.00 | 67 | 1014.1 |
| 20260502195403 | 63 | 13 | 1.0 | 2.0 | 0.00 | 0.00 | 0.00 | 67 | 1014.0 |
| 20260502194503 | 64 | 7 | 1.0 | 2.0 | 0.00 | 0.00 | 0.00 | 67 | 1013.9 |
| 20260502193603 | 64 | 12 | 1.0 | 2.0 | 0.00 | 0.00 | 0.00 | 67 | 1013.9 |
| 20260502192703 | 64 | 337 | 1.0 | 4.0 | 0.00 | 0.00 | 0.00 | 66 | 1013.9 |
| 20260502191803 | 65 | 356 | 2.0 | 3.0 | 0.00 | 0.00 | 0.00 | 66 | 1013.9 |
| 20260502190903 | 65 | 1 | 2.0 | 5.0 | 0.00 | 0.00 | 0.00 | 66 | 1013.9 |
| 20260502190219 | 65 | 7 | 2.0 | 5.0 | 0.00 | 0.00 | 0.00 | 65 | 1013.8 |
| 20260502185403 | 66 | 6 | 3.0 | 5.0 | 0.00 | 0.00 | 0.00 | 65 | 1013.7 |
| 20260502184503 | 66 | 1 | 3.0 | 7.0 | 0.00 | 0.00 | 0.00 | 64 | 1013.7 |
| 20260502183603 | 66 | 2 | 3.0 | 5.0 | 0.00 | 0.00 | 0.00 | 64 | 1013.8 |
| 20260502181803 | 68 | 6 | 3.0 | 6.0 | 0.00 | 0.00 | 0.00 | 63 | 1013.8 |
| 20260502181115 | 69 | 3 | 3.0 | 6.0 | 0.00 | 0.00 | 0.00 | 62 | 1013.9 |
| 20260502163603 | 72 | 213 | 4.0 | 6.0 | 0.00 | 0.00 | 0.00 | 59 | 1014.2 |
| 20260502162703 | 72 | 231 | 3.0 | 6.0 | 0.00 | 0.00 | 0.00 | 57 | 1014.3 |
| 20260502161803 | 73 | 230 | 3.0 | 7.0 | 0.00 | 0.00 | 0.00 | 59 | 1014.3 |
| 20260502160903 | 73 | 229 | 4.0 | 6.0 | 0.00 | 0.00 | 0.00 | 58 | 1014.4 |
| 20260502151803 | 74 | 244 | 3.0 | 5.0 | 0.00 | 0.00 | 0.00 | 55 | 1014.8 |
| 20260502150903 | 73 | 207 | 5.0 | 9.0 | 0.00 | 0.00 | 0.00 | 55 | 1014.9 |
| 20260502122703 | 74 | 198 | 8.0 | 14.0 | 0.00 | 0.00 | 0.00 | 54 | 1016.2 |
| 20260502121803 | 73 | 201 | 7.0 | 13.0 | 0.00 | 0.00 | 0.00 | 57 | 1016.3 |
| 20260502121117 | 72 | 219 | 8.0 | 16.0 | 0.00 | 0.00 | 0.00 | 55 | 1016.3 |
| 20260502115403 | 72 | 229 | 6.0 | 12.0 | 0.00 | 0.00 | 0.00 | 56 | 1016.5 |
| 20260502114503 | 72 | 220 | 8.0 | 14.0 | 0.00 | 0.00 | 0.00 | 56 | 1016.5 |
| 20260502113819 | 73 | 234 | 9.0 | 15.0 | 0.00 | 0.00 | 0.00 | 59 | 1016.6 |
| 20260502112703 | 73 | 224 | 8.0 | 15.0 | 0.00 | 0.00 | 0.00 | 54 | 1016.7 |
| 20260502111803 | 73 | 220 | 8.0 | 14.0 | 0.00 | 0.00 | 0.00 | 53 | 1016.6 |
| 20260502110903 | 73 | 201 | 6.0 | 13.0 | 0.00 | 0.00 | 0.00 | 56 | 1016.6 |
| 20260502110003 | 72 | 203 | 7.0 | 13.0 | 0.00 | 0.00 | 0.00 | 56 | 1016.8 |
| 20260502105616 | 72 | 203 | 8.0 | 14.0 | 0.00 | 0.00 | 0.00 | 55 | 1016.8 |
| 20260502104503 | 72 | 233 | 7.0 | 14.0 | 0.00 | 0.00 | 0.00 | 54 | 1017.0 |
| 20260502103603 | 72 | 204 | 6.0 | 13.0 | 0.00 | 0.00 | 0.00 | 56 | 1017.0 |
| 20260502102703 | 72 | 214 | 4.0 | 8.0 | 0.00 | 0.00 | 0.00 | 51 | 1017.1 |
| 20260502101803 | 72 | 177 | 1.0 | 5.0 | 0.00 | 0.00 | 0.00 | 48 | 1017.0 |
| 20260502100903 | 70 | 205 | 3.0 | 10.0 | 0.00 | 0.00 | 0.00 | 49 | 1017.2 |
| 20260502091116 | 66 | 200 | 3.0 | 8.0 | 0.00 | 0.00 | 0.00 | 54 | 1017.5 |
| 20260502071115 | 63 | 220 | 1.0 | 2.0 | 0.00 | 0.00 | 0.00 | 56 | 1017.7 |
| 20260502070219 | 61 | 219 | 1.0 | 3.0 | 0.00 | 0.00 | 0.00 | 60 | 1017.8 |
| 20260502065618 | 60 | 205 | 1.0 | 4.0 | 0.00 | 0.00 | 0.00 | 60 | 1017.9 |
| 20260502064503 | 58 | 191 | 2.0 | 6.0 | 0.00 | 0.00 | 0.00 | 62 | 1018.0 |
| 20260502063603 | 57 | 180 | 1.0 | 4.0 | 0.00 | 0.00 | 0.00 | 64 | 1017.9 |
| 20260502062703 | 55 | 194 | 1.0 | 3.0 | 0.00 | 0.00 | 0.00 | 66 | 1017.8 |
| 20260502061803 | 53 | 227 | 0.0 | 1.0 | 0.00 | 0.00 | 0.00 | 69 | 1017.7 |
| 20260502061119 | 52 | 221 | 0.0 | 1.0 | 0.00 | 0.00 | 0.00 | 70 | 1017.6 |
| 20260502060003 | 51 | 208 | 0.0 | 1.0 | 0.00 | 0.00 | 0.00 | 73 | 1017.6 |
| 20260502055403 | 50 | 228 | 0.0 | 1.0 | 0.00 | 0.00 | 0.00 | 75 | 1017.6 |
| 20260502054503 | 49 | 0 | 0.0 | 0.0 | 0.00 | 0.00 | 0.00 | 78 | 1018.6 |
| 20260502053817 | 48 | 0 | 0.0 | 0.0 | 0.00 | 0.00 | 0.00 | 78 | 1018.6 |
| 20260502052703 | 47 | 0 | 0.0 | 0.0 | 0.00 | 0.00 | 0.00 | 81 | 1018.7 |
| 20260502052015 | 46 | 0 | 0.0 | 0.0 | 0.00 | 0.00 | 0.00 | 82 | 1018.8 |
| 20260502050903 | 45 | 229 | 0.0 | 1.0 | 0.00 | 0.00 | 0.00 | 85 | 1018.9 |
| 20260502050003 | 43 | 229 | 0.0 | 1.0 | 0.00 | 0.00 | 0.00 | 84 | 1019.0 |
| 20260502045403 | 42 | 0 | 0.0 | 0.0 | 0.00 | 0.00 | 0.00 | 84 | 1018.9 |
| 20260502044503 | 42 | 0 | 0.0 | 0.0 | 0.00 | 0.00 | 0.00 | 83 | 1018.9 |
| 20260502043603 | 42 | 0 | 0.0 | 0.0 | 0.00 | 0.00 | 0.00 | 82 | 1018.9 |
| 20260502042703 | 42 | 229 | 0.0 | 1.0 | 0.00 | 0.00 | 0.00 | 83 | 1018.9 |
| 20260502041803 | 42 | 0 | 0.0 | 0.0 | 0.00 | 0.00 | 0.00 | 83 | 1018.9 |
| 20260502040903 | 42 | 0 | 0.0 | 0.0 | 0.00 | 0.00 | 0.00 | 82 | 1018.9 |
| 20260502040003 | 42 | 0 | 0.0 | 0.0 | 0.00 | 0.00 | 0.00 | 82 | 1019.0 |
| 20260502035403 | 42 | 0 | 0.0 | 0.0 | 0.00 | 0.00 | 0.00 | 82 | 1019.1 |
| 20260502034503 | 43 | 0 | 0.0 | 0.0 | 0.00 | 0.00 | 0.00 | 81 | 1019.2 |
| 20260502033603 | 43 | 229 | 0.0 | 0.0 | 0.00 | 0.00 | 0.00 | 82 | 1019.2 |
| 20260502032703 | 43 | 0 | 0.0 | 0.0 | 0.00 | 0.00 | 0.00 | 81 | 1019.2 |
| 20260502031803 | 43 | 229 | 0.0 | 1.0 | 0.00 | 0.00 | 0.00 | 82 | 1019.2 |
| 20260502030903 | 43 | 0 | 0.0 | 0.0 | 0.00 | 0.00 | 0.00 | 83 | 1019.3 |
| 20260502030003 | 43 | 0 | 0.0 | 0.0 | 0.00 | 0.00 | 0.00 | 82 | 1019.4 |
| 20260502025403 | 43 | 0 | 0.0 | 0.0 | 0.00 | 0.00 | 0.00 | 83 | 1019.4 |
| 20260502024716 | 43 | 229 | 0.0 | 1.0 | 0.00 | 0.00 | 0.00 | 83 | 1019.4 |
| 20260502023603 | 43 | 0 | 0.0 | 0.0 | 0.00 | 0.00 | 0.00 | 83 | 1019.4 |
| 20260502022703 | 43 | 0 | 0.0 | 0.0 | 0.00 | 0.00 | 0.00 | 82 | 1019.5 |
| 20260502021803 | 44 | 0 | 0.0 | 0.0 | 0.00 | 0.00 | 0.00 | 82 | 1019.6 |
| 20260502020903 | 43 | 0 | 0.0 | 0.0 | 0.00 | 0.00 | 0.00 | 82 | 1019.5 |
| 20260502020003 | 43 | 0 | 0.0 | 0.0 | 0.00 | 0.00 | 0.00 | 80 | 1019.7 |
| 20260502015403 | 43 | 0 | 0.0 | 0.0 | 0.00 | 0.00 | 0.00 | 80 | 1019.8 |
| 20260502014503 | 44 | 0 | 0.0 | 0.0 | 0.00 | 0.00 | 0.00 | 80 | 1019.8 |
| 20260502013604 | 44 | 0 | 0.0 | 0.0 | 0.00 | 0.00 | 0.00 | 81 | 1019.8 |
| 20260502012919 | 44 | 0 | 0.0 | 0.0 | 0.00 | 0.00 | 0.00 | 81 | 1019.8 |
| 20260502011803 | 44 | 0 | 0.0 | 0.0 | 0.00 | 0.00 | 0.00 | 81 | 1019.9 |
| 20260502010903 | 44 | 0 | 0.0 | 0.0 | 0.00 | 0.00 | 0.00 | 81 | 1020.0 |
| 20260502010003 | 44 | 0 | 0.0 | 0.0 | 0.00 | 0.00 | 0.00 | 80 | 1020.2 |
| 20260502005403 | 44 | 0 | 0.0 | 0.0 | 0.00 | 0.00 | 0.00 | 80 | 1020.3 |
| 20260502004715 | 44 | 0 | 0.0 | 0.0 | 0.00 | 0.00 | 0.00 | 80 | 1020.3 |
| 20260502003819 | 45 | 0 | 0.0 | 0.0 | 0.00 | 0.00 | 0.00 | 80 | 1020.3 |
| 20260502002918 | 45 | 0 | 0.0 | 0.0 | 0.00 | 0.00 | 0.00 | 78 | 1020.5 |
| 20260502001803 | 45 | 0 | 0.0 | 0.0 | 0.00 | 0.00 | 0.00 | 77 | 1020.4 |
| 20260502000903 | 46 | 0 | 0.0 | 0.0 | 0.00 | 0.00 | 0.00 | 78 | 1020.5 |
| 20260502000003 | 45 | 0 | 0.0 | 0.0 | 0.00 | 0.00 | 0.00 | 76 | 1020.7 |
| 20260501235403 | 45 | 0 | 0.0 | 0.0 | 0.00 | 0.00 | 0.00 | 76 | 1020.7 |
| 20260501234503 | 46 | 0 | 0.0 | 0.0 | 0.00 | 0.00 | 0.00 | 74 | 1020.7 |
| 20260501233603 | 46 | 0 | 0.0 | 0.0 | 0.00 | 0.00 | 0.00 | 73 | 1020.9 |
| 20260501232918 | 47 | 0 | 0.0 | 0.0 | 0.00 | 0.00 | 0.00 | 73 | 1020.9 |